Home > Weather > Hyderabad > Past weeks

Flag for India Past Weather in Hyderabad, Telangana, India — Yesterday and Last 2 Weeks

Now
79 °F

Broken clouds.


Feels Like: 81 °F
Forecast: 73 / 82 °F
Wind: 13 mph from Northwest

Location: Hyderabad Airport

Current Time: Jul 2, 2016 at 9:34:46 AM

Latest Report: Jul 2, 2016 at 9:00 AM


Visibility: 2 mi

Pressure: 29.74 "Hg (28.07 "Hg at 507m altitude)

Humidity: 74%

Dew Point: 70 °F

Location of HyderabadLocation

Past Weather in Hyderabad — Graph

°F

Hyderabad Temperature Yesterday

Maximum temperature yesterday: 84 °F (at 11:30 AM)
Minimum temperature yesterday: 75 °F (at 6:00 AM)
Average temperature yesterday: 81 °F

High & Low Weather Summary for the Past Weeks

 TemperatureHumidityPressure
High100 °F (Jun 17, 3:00 PM)89% (Jun 20, 9:00 AM)29.83 "Hg (Jun 20, 9:00 AM)
Low73 °F (Jun 26, 6:00 AM)31% (Jun 17, 2:30 PM)29.53 "Hg (Jun 18, 9:30 PM)
Average83 °F66%29.73 "Hg
* Reported Jun 17 8:00 AM — Jul 2 8:00 AM, Hyderabad, Weather by CustomWeather, © 2016

Note: Actual official high and low records may vary slightly from our data, if they occured in-between our weather recording intervals... More about our weather records

Advertising

Hyderabad Weather History for the Previous 24 Hours

Scroll right to see more
 ConditionsComfort  
Time TempWeatherWind HumidityBarometerVisibility
8:00 AM
Sat, Jul 2
75 °FMore clouds than sun.12 mph78%29.74 "Hg2 mi
7:30 AM75 °FMore clouds than sun.12 mph78%29.74 "Hg2 mi
6:30 AM75 °FMore clouds than sun.9 mphN/A29.71 "Hg2 mi
6:00 AM75 °FMostly cloudy.8 mph74%29.71 "Hg2 mi
9:30 PM
Fri, Jul 1
81 °FPartly cloudy.3 mph66%29.74 "Hg3 mi
9:00 PM81 °FPartly cloudy.3 mph66%29.74 "Hg3 mi
8:30 PM81 °FPartly cloudy.7 mph66%29.74 "Hg3 mi
8:00 PM81 °FPartly cloudy.5 mph66%29.74 "Hg3 mi
7:30 PM81 °FPartly cloudy.7 mph70%29.68 "Hg3 mi
7:00 PM81 °FBroken clouds.5 mph70%29.68 "Hg3 mi
6:30 PM81 °FBroken clouds.9 mph70%29.65 "Hg3 mi
6:00 PM82 °FBroken clouds.12 mph66%29.65 "Hg3 mi
5:30 PM82 °FBroken clouds.9 mph66%29.65 "Hg3 mi
5:00 PM82 °FBroken clouds.9 mph66%29.65 "Hg3 mi
4:30 PM82 °FBroken clouds.9 mph66%29.65 "Hg3 mi
4:00 PM81 °FBroken clouds.9 mph74%29.65 "Hg3 mi
3:30 PM79 °FDrizzle. Broken clouds.9 mph79%29.68 "Hg2 mi
3:00 PM81 °FDrizzle. Broken clouds.6 mph74%29.68 "Hg2 mi
2:30 PM79 °FDrizzle. Broken clouds.6 mph79%29.71 "Hg3 mi
1:30 PM84 °FBroken clouds.12 mph62%29.71 "Hg4 mi
1:00 PM84 °FBroken clouds.12 mph62%29.71 "Hg4 mi
12:30 PM84 °FBroken clouds.14 mph62%29.71 "Hg4 mi
12:00 PM84 °FBroken clouds.12 mph62%29.71 "Hg4 mi
11:30 AM84 °FBroken clouds.12 mph62%29.71 "Hg4 mi
10:00 AM81 °FBroken clouds.14 mph70%29.74 "Hg3 mi
9:30 AM82 °FBroken clouds.12 mph74%29.74 "Hg3 mi
Weather by CustomWeather, © 2016

See weather overviewHow to use our weather pages